When you browse on this site, cookies collect data to enhance your experience and personalize the content and advertising you see.
Visit our Privacy Policy to learn more. By continuing to use the site, you agree to this use of cookies and data.
  • en France
  • Liste des pays
  • À 7 jours
  • Température de l'eau
  • Carte météo
  • Widgets météo
  • user-avatar
    Se connecter

    Météo par heure à Dinajpur

    Ce jour, 19 Août, Lundi

    Heure Température Précipitation Vent Pression Humidité
    00:00 +30°C° 0 mm 4 m/s 751 mmHg 82%
    01:00 +30°C° 0 mm 4 m/s 750 mmHg 83%
    02:00 +29°C° 0 mm 4 m/s 750 mmHg 85%
    03:00 +29°C° 0 mm 4 m/s 750 mmHg 86%
    04:00 +29°C° 0 mm 3 m/s 750 mmHg 87%
    05:00 +29°C° 0 mm 3 m/s 750 mmHg 87%
    06:00 +29°C° 0 mm 3 m/s 750 mmHg 87%
    07:00 +30°C° 0 mm 3 m/s 751 mmHg 81%
    08:00 +31°C° 0 mm 3 m/s 751 mmHg 75%
    09:00 +33°C° 0 mm 4 m/s 751 mmHg 69%
    10:00 +34°C° 0 mm 4 m/s 751 mmHg 65%
    11:00 +35°C° 0 mm 4 m/s 751 mmHg 61%
    12:00 +36°C° 0 mm 4 m/s 750 mmHg 58%
    13:00 +36°C° 0 mm 4 m/s 750 mmHg 56%
    14:00 +37°C° 0 mm 3 m/s 749 mmHg 55%
    15:00 +37°C° 0 mm 3 m/s 748 mmHg 53%
    16:00 +37°C° 0 mm 3 m/s 748 mmHg 56%
    17:00 +36°C° 0 mm 3 m/s 748 mmHg 59%
    18:00 +36°C° 0 mm 3 m/s 748 mmHg 62%
    19:00 +35°C° 0 mm 3 m/s 748 mmHg 66%
    20:00 +34°C° 0 mm 3 m/s 749 mmHg 70%
    21:00 +33°C° 0 mm 3 m/s 750 mmHg 74%
    22:00 +33°C° 0.1 mm 3 m/s 750 mmHg 76%
    23:00 +31°C° 0.1 mm 3 m/s 750 mmHg 77%

    Demain, 20 Août, Mardi

    Heure Température Précipitation Vent Pression Humidité
    00:00 +31°C° 0.1 mm 3 m/s 750 mmHg 79%
    01:00 +31°C° 0 mm 3 m/s 750 mmHg 80%
    02:00 +30°C° 0 mm 3 m/s 749 mmHg 81%
    03:00 +30°C° 0 mm 3 m/s 749 mmHg 83%
    04:00 +29°C° 0 mm 3 m/s 749 mmHg 84%
    05:00 +29°C° 0 mm 3 m/s 749 mmHg 85%
    06:00 +29°C° 0 mm 3 m/s 749 mmHg 86%
    07:00 +30°C° 0 mm 3 m/s 750 mmHg 81%
    08:00 +31°C° 0 mm 3 m/s 750 mmHg 76%
    09:00 +33°C° 0 mm 4 m/s 751 mmHg 72%
    10:00 +35°C° 0 mm 4 m/s 750 mmHg 66%
    11:00 +36°C° 0 mm 4 m/s 750 mmHg 61%
    12:00 +37°C° 0 mm 4 m/s 750 mmHg 55%
    13:00 +37°C° 0.1 mm 4 m/s 749 mmHg 54%
    14:00 +38°C° 0.1 mm 4 m/s 748 mmHg 53%
    15:00 +38°C° 0.1 mm 4 m/s 747 mmHg 52%
    16:00 +37°C° 0.3 mm 4 m/s 747 mmHg 55%
    17:00 +37°C° 0.3 mm 3 m/s 747 mmHg 58%
    18:00 +36°C° 0.3 mm 3 m/s 747 mmHg 61%
    19:00 +35°C° 0.8 mm 3 m/s 747 mmHg 66%
    20:00 +34°C° 0.8 mm 3 m/s 748 mmHg 70%
    21:00 +33°C° 0.8 mm 3 m/s 749 mmHg 74%
    22:00 +33°C° 0.9 mm 3 m/s 749 mmHg 76%
    23:00 +31°C° 0.9 mm 3 m/s 749 mmHg 77%

    Après-demain, 21 Août, Mercredi

    Heure Température Précipitation Vent Pression Humidité
    00:00 +31°C° 0.9 mm 3 m/s 749 mmHg 79%
    01:00 +31°C° 0.6 mm 3 m/s 749 mmHg 80%
    02:00 +31°C° 0.6 mm 3 m/s 748 mmHg 81%
    03:00 +30°C° 0.6 mm 3 m/s 748 mmHg 82%
    04:00 +30°C° 0.7 mm 3 m/s 748 mmHg 84%
    05:00 +30°C° 0.7 mm 3 m/s 748 mmHg 86%
    06:00 +29°C° 0.7 mm 3 m/s 748 mmHg 87%
    07:00 +31°C° 0.2 mm 3 m/s 748 mmHg 81%
    08:00 +33°C° 0.2 mm 3 m/s 749 mmHg 75%
    09:00 +34°C° 0.2 mm 3 m/s 749 mmHg 69%
    10:00 +35°C° 0 mm 4 m/s 749 mmHg 64%
    11:00 +36°C° 0 mm 4 m/s 749 mmHg 58%
    12:00 +38°C° 0 mm 4 m/s 748 mmHg 52%
    13:00 +38°C° 0 mm 4 m/s 748 mmHg 51%
    14:00 +38°C° 0 mm 4 m/s 747 mmHg 50%
    15:00 +40°C° 0 mm 4 m/s 746 mmHg 48%
    16:00 +38°C° 0 mm 3 m/s 746 mmHg 52%
    17:00 +37°C° 0 mm 3 m/s 746 mmHg 56%
    18:00 +36°C° 0 mm 3 m/s 746 mmHg 60%
    19:00 +36°C° 0 mm 3 m/s 747 mmHg 63%
    20:00 +35°C° 0 mm 2 m/s 747 mmHg 66%
    21:00 +34°C° 0 mm 2 m/s 748 mmHg 69%
    22:00 +34°C° 0.4 mm 2 m/s 748 mmHg 72%
    23:00 +32°C° 0.4 mm 2 m/s 748 mmHg 74%

    22 Août, Jeudi

    Heure Température Précipitation Vent Pression Humidité
    00:00 +32°C° 0.4 mm 2 m/s 749 mmHg 76%
    01:00 +31°C° 0 mm 2 m/s 748 mmHg 79%
    02:00 +31°C° 0 mm 2 m/s 748 mmHg 81%
    03:00 +31°C° 0 mm 2 m/s 747 mmHg 84%
    04:00 +30°C° 0.2 mm 2 m/s 748 mmHg 85%
    05:00 +30°C° 0.2 mm 2 m/s 748 mmHg 86%
    06:00 +30°C° 0.2 mm 2 m/s 748 mmHg 87%
    07:00 +31°C° 0.7 mm 2 m/s 748 mmHg 80%
    08:00 +33°C° 0.7 mm 3 m/s 748 mmHg 74%
    09:00 +34°C° 0.7 mm 3 m/s 749 mmHg 67%
    10:00 +35°C° 0.1 mm 3 m/s 748 mmHg 62%
    11:00 +37°C° 0.1 mm 3 m/s 748 mmHg 57%
    12:00 +38°C° 0.1 mm 3 m/s 748 mmHg 52%
    13:00 +38°C° 0 mm 3 m/s 747 mmHg 51%
    14:00 +38°C° 0 mm 3 m/s 747 mmHg 50%
    15:00 +38°C° 0 mm 2 m/s 746 mmHg 48%
    16:00 +38°C° 0 mm 2 m/s 746 mmHg 50%
    17:00 +38°C° 0 mm 2 m/s 746 mmHg 52%
    18:00 +37°C° 0 mm 2 m/s 745 mmHg 54%
    19:00 +36°C° 0 mm 3 m/s 746 mmHg 58%
    20:00 +35°C° 0 mm 3 m/s 747 mmHg 62%
    21:00 +34°C° 0 mm 3 m/s 747 mmHg 66%
    22:00 +34°C° 0 mm 3 m/s 748 mmHg 68%
    23:00 +33°C° 0 mm 3 m/s 748 mmHg 70%

    23 Août, Vendredi

    Heure Température Précipitation Vent Pression Humidité
    00:00 +33°C° 0 mm 3 m/s 748 mmHg 72%
    01:00 +33°C° 0.1 mm 3 m/s 748 mmHg 73%
    02:00 +31°C° 0.1 mm 3 m/s 747 mmHg 75%
    03:00 +32°C° 0.1 mm 4 m/s 747 mmHg 76%
    04:00 +31°C° 0 mm 3 m/s 747 mmHg 77%
    05:00 +30°C° 0 mm 3 m/s 747 mmHg 78%
    06:00 +30°C° 0 mm 3 m/s 747 mmHg 79%
    07:00 +31°C° 0 mm 3 m/s 748 mmHg 74%
    08:00 +33°C° 0 mm 3 m/s 748 mmHg 69%
    09:00 +34°C° 0 mm 3 m/s 749 mmHg 63%
    10:00 +35°C° 0 mm 3 m/s 748 mmHg 59%
    11:00 +37°C° 0 mm 4 m/s 748 mmHg 56%
    12:00 +38°C° 0 mm 4 m/s 748 mmHg 52%
    13:00 +38°C° 0.1 mm 4 m/s 748 mmHg 52%
    14:00 +38°C° 0.1 mm 4 m/s 747 mmHg 53%
    15:00 +38°C° 0.1 mm 4 m/s 747 mmHg 53%
    16:00 +37°C° 0.4 mm 4 m/s 747 mmHg 56%
    17:00 +36°C° 0.4 mm 4 m/s 747 mmHg 60%
    18:00 +35°C° 0.4 mm 3 m/s 748 mmHg 63%
    19:00 +34°C° 0.4 mm 4 m/s 748 mmHg 66%
    20:00 +34°C° 0.4 mm 4 m/s 749 mmHg 69%
    21:00 +33°C° 0.4 mm 4 m/s 750 mmHg 73%
    22:00 +32°C° 0.5 mm 4 m/s 750 mmHg 75%
    23:00 +31°C° 0.5 mm 3 m/s 750 mmHg 77%

    24 Août, Samedi

    Heure Température Précipitation Vent Pression Humidité
    00:00 +30°C° 0.5 mm 3 m/s 750 mmHg 79%
    01:00 +30°C° 0.9 mm 4 m/s 750 mmHg 81%
    02:00 +29°C° 0.9 mm 4 m/s 750 mmHg 82%
    03:00 +29°C° 0.9 mm 4 m/s 749 mmHg 84%
    04:00 +29°C° 0.3 mm 4 m/s 750 mmHg 86%
    05:00 +28°C° 0.3 mm 4 m/s 750 mmHg 87%
    06:00 +28°C° 0.3 mm 4 m/s 750 mmHg 89%
    07:00 +28°C° 0.2 mm 4 m/s 751 mmHg 89%
    08:00 +28°C° 0.2 mm 4 m/s 751 mmHg 88%
    09:00 +28°C° 0.2 mm 3 m/s 752 mmHg 88%
    10:00 +28°C° 0.1 mm 3 m/s 752 mmHg 86%
    11:00 +29°C° 0.1 mm 3 m/s 752 mmHg 83%
    12:00 +29°C° 0.1 mm 4 m/s 752 mmHg 81%
    13:00 +30°C° 0 mm 3 m/s 751 mmHg 78%
    14:00 +30°C° 0 mm 3 m/s 750 mmHg 76%
    15:00 +31°C° 0 mm 2 m/s 749 mmHg 73%
    16:00 +31°C° 0 mm 2 m/s 749 mmHg 72%
    17:00 +32°C° 0 mm 2 m/s 748 mmHg 72%
    18:00 +32°C° 0 mm 1 m/s 748 mmHg 72%
    19:00 +31°C° 0 mm 2 m/s 749 mmHg 76%
    20:00 +30°C° 0 mm 2 m/s 749 mmHg 80%
    21:00 +30°C° 0 mm 2 m/s 750 mmHg 83%
    22:00 +29°C° 0 mm 1 m/s 750 mmHg 84%
    23:00 +29°C° 0 mm 1 m/s 750 mmHg 85%
    Voir plus